Weather History for Lakeville, MN

Change the Weather History Date:

Monday, September 24, 2012

  Actual Average Record
Temperature  
Mean Temperature 56 °F -  
Max Temperature 75 °F 67 °F 84 °F (1958)
Min Temperature 37 °F 43 °F 28 °F (2000)
Degree Days  
Heating Degree Days 9    
Growing Degree Days 6 (Base 50)    
Moisture  
Dew Point 33 °F    
Average Humidity 44    
Maximum Humidity 70    
Minimum Humidity 24    
Precipitation  
Precipitation 0.00 in - - ()
Sea Level Pressure  
Sea Level Pressure 29.91 in    
Wind  
Wind Speed 5 mph (WSW)    
Max Wind Speed 18 mph    
Max Gust Speed 26 mph    
Visibility 10 miles    
Events      
Averages and records for this station are not official NWS values.
T = Trace of Precipitation, MM = Missing Value Source: NWS Daily Summary

Daily Weather History Graph

Daily Weather History Graph

Search for Another Location

Airport:

Trip Planner

Search our weather history database for the weather conditions in past years. The results will help you decide how hot, cold, wet, or windy it might be!

Date:

Astronomy

Sep. 24, 2012 Rise Set
Actual Time 7:03 AM CDT 7:05 PM CDT
Civil Twilight 6:33 AM CDT 7:34 PM CDT
Nautical Twilight 5:59 AM CDT 8:08 PM CDT
Astronomical Twilight 5:24 AM CDT 8:43 PM CDT
Moon 4:02 PM CDT (9/24) 1:08 AM CDT (9/24)
Length of Visible Light 13h 00m
Length of Day
12h 02m
Waxing Gibbous, 71% of the Moon is Illuminated
Sep 24
Waxing Gibbous
Sep 29
Full
Oct 8
Last Quarter
Oct 15
New
Oct 21
First Quarter

Hourly Weather History & Observations

Time (CDT) Temp. Windchill Dew Point Humidity Pressure Visibility Wind Dir Wind Speed Gust Speed Precip Events Conditions
12:14 AM 39.2 °F 37.0 °F 30.2 °F 70% 30.16 in 10.0 mi SW 3.5 mph - N/A   Clear
12:34 AM 39.2 °F 37.0 °F 28.4 °F 65% 30.15 in 10.0 mi SSW 3.5 mph - N/A   Clear
12:54 AM 41.0 °F 39.0 °F 28.4 °F 61% 30.14 in 10.0 mi SW 3.5 mph - N/A   Clear
1:13 AM 41.0 °F - 28.4 °F 61% 30.14 in 10.0 mi Calm Calm - N/A   Clear
1:34 AM 41.0 °F - 28.4 °F 61% 30.14 in 10.0 mi Calm Calm - N/A   Clear
1:54 AM 41.0 °F - 28.4 °F 61% 30.14 in 10.0 mi Calm Calm - N/A   Clear
2:34 AM 39.2 °F - 28.4 °F 65% 30.13 in 10.0 mi Calm Calm - N/A   Clear
2:54 AM 41.0 °F - 26.6 °F 57% 30.12 in 10.0 mi Calm Calm - N/A   Clear
3:14 AM 39.2 °F - 26.6 °F 61% 30.11 in 10.0 mi Calm Calm - N/A   Clear
3:34 AM 39.2 °F - 26.6 °F 61% 30.11 in 10.0 mi Calm Calm - N/A   Clear
3:54 AM 37.4 °F - 28.4 °F 70% 30.10 in 10.0 mi Calm Calm - N/A   Clear
4:14 AM 37.4 °F - 28.4 °F 70% 30.10 in 10.0 mi Calm Calm - N/A   Clear
4:34 AM 37.4 °F - 26.6 °F 65% 30.09 in 10.0 mi Calm Calm - N/A   Clear
4:54 AM 37.4 °F - 28.4 °F 70% 30.08 in 10.0 mi Calm Calm - N/A   Clear
5:13 AM 39.2 °F - 26.6 °F 61% 30.07 in 10.0 mi Calm Calm - N/A   Clear
5:34 AM 39.2 °F 37.0 °F 26.6 °F 61% 30.07 in 10.0 mi SSW 3.5 mph - N/A   Clear
5:53 AM 39.2 °F - 26.6 °F 61% 30.06 in 10.0 mi Calm Calm - N/A   Clear
6:14 AM 39.2 °F - 28.4 °F 65% 30.05 in 7.0 mi Calm Calm - N/A   Clear
6:34 AM 41.0 °F 39.0 °F 28.4 °F 61% 30.04 in 10.0 mi SSW 3.5 mph - N/A   Clear
6:53 AM 41.0 °F 39.0 °F 28.4 °F 61% 30.03 in 10.0 mi SSW 3.5 mph - N/A   Clear
7:14 AM 42.8 °F 41.1 °F 28.4 °F 57% 30.02 in 10.0 mi SSW 3.5 mph - N/A   Clear
7:34 AM 42.8 °F 41.1 °F 28.4 °F 57% 30.01 in 10.0 mi SW 3.5 mph - N/A   Clear
7:53 AM 44.6 °F 42.2 °F 28.4 °F 53% 30.00 in 10.0 mi SSW 4.6 mph - N/A   Clear
8:14 AM 46.4 °F 42.9 °F 28.4 °F 50% 29.99 in 10.0 mi SSW 6.9 mph - N/A   Clear
8:34 AM 48.2 °F - 30.2 °F 50% 29.98 in 10.0 mi SSW 5.8 mph - N/A   Clear
8:53 AM 51.8 °F - 30.2 °F 44% 29.97 in 10.0 mi SSW 5.8 mph - N/A   Clear
9:53 AM 57.2 °F - 33.8 °F 41% 29.94 in 10.0 mi SW 8.1 mph - N/A   Clear
10:14 AM 59.0 °F - 33.8 °F 39% 29.93 in 10.0 mi SW 12.7 mph 19.6 mph N/A   Clear
10:53 AM 60.8 °F - 35.6 °F 39% 29.92 in 10.0 mi WSW 15.0 mph 20.7 mph N/A   Clear
11:14 AM 62.6 °F - 35.6 °F 37% 29.91 in 10.0 mi WSW 15.0 mph 20.7 mph N/A   Clear
11:34 AM 64.4 °F - 35.6 °F 34% 29.90 in 10.0 mi WSW 13.8 mph 23.0 mph N/A   Clear
11:53 AM 66.2 °F - 35.6 °F 32% 29.89 in 10.0 mi WSW 17.3 mph 25.3 mph N/A   Clear
12:14 PM 68.0 °F - 37.4 °F 33% 29.88 in 10.0 mi WSW 16.1 mph 26.5 mph N/A   Clear
12:34 PM 69.8 °F - 37.4 °F 31% 29.87 in 10.0 mi WSW 13.8 mph 21.9 mph N/A   Clear
12:53 PM 71.6 °F - 37.4 °F 29% 29.86 in 10.0 mi WSW 15.0 mph 20.7 mph N/A   Clear
1:14 PM 71.6 °F - 37.4 °F 29% 29.85 in 10.0 mi WSW 12.7 mph 26.5 mph N/A   Clear
1:34 PM 73.4 °F - 37.4 °F 27% 29.84 in 10.0 mi West 17.3 mph 24.2 mph N/A   Clear
1:53 PM 73.4 °F - 37.4 °F 27% 29.83 in 10.0 mi West 15.0 mph 23.0 mph N/A   Clear
2:14 PM 73.4 °F - 37.4 °F 27% 29.82 in 10.0 mi West 18.4 mph 26.5 mph N/A   Clear
2:34 PM 75.2 °F - 37.4 °F 25% 29.81 in 10.0 mi WSW 12.7 mph 23.0 mph N/A   Clear
2:53 PM 75.2 °F - 37.4 °F 25% 29.80 in 10.0 mi West 15.0 mph 25.3 mph N/A   Clear
3:14 PM 73.4 °F - 37.4 °F 27% 29.79 in 7.0 mi WSW 15.0 mph 24.2 mph N/A   Clear
3:34 PM 73.4 °F - 37.4 °F 27% 29.78 in 10.0 mi WSW 15.0 mph 23.0 mph N/A   Clear
3:53 PM 75.2 °F - 37.4 °F 25% 29.77 in 10.0 mi West 13.8 mph 20.7 mph N/A   Clear
4:14 PM 75.2 °F - 39.2 °F 27% 29.77 in 10.0 mi WSW 12.7 mph 16.1 mph N/A   Clear
4:34 PM 75.2 °F - 37.4 °F 25% 29.76 in 10.0 mi West 11.5 mph 24.2 mph N/A   Clear
4:53 PM 75.2 °F - 35.6 °F 24% 29.76 in 10.0 mi WSW 13.8 mph 18.4 mph N/A   Clear
5:14 PM 75.2 °F - 35.6 °F 24% 29.75 in 10.0 mi WSW 12.7 mph 18.4 mph N/A   Clear
5:34 PM 73.4 °F - 35.6 °F 25% 29.75 in 10.0 mi West 9.2 mph 16.1 mph N/A   Clear
5:53 PM 73.4 °F - 37.4 °F 27% 29.76 in 10.0 mi West 8.1 mph - N/A   Clear
6:14 PM 73.4 °F - 37.4 °F 27% 29.75 in 10.0 mi WSW 5.8 mph - N/A   Clear
6:34 PM 71.6 °F - 37.4 °F 29% 29.75 in 10.0 mi West 5.8 mph - N/A   Clear
6:53 PM 69.8 °F - 37.4 °F 31% 29.75 in 10.0 mi WSW 5.8 mph - N/A   Clear
7:14 PM 68.0 °F - 37.4 °F 33% 29.75 in 7.0 mi WSW 4.6 mph - N/A   Clear
7:34 PM 64.4 °F - 37.4 °F 37% 29.76 in 7.0 mi WSW 3.5 mph - N/A   Clear
7:53 PM 60.8 °F - 37.4 °F 42% 29.76 in 5.0 mi Calm Calm - N/A   Haze
8:14 PM 62.6 °F - 37.4 °F 39% 29.76 in 7.0 mi SW 3.5 mph - N/A   Clear
8:34 PM 62.6 °F - 37.4 °F 39% 29.77 in 7.0 mi SW 4.6 mph - N/A   Clear
8:53 PM 62.6 °F - 37.4 °F 39% 29.76 in 10.0 mi SW 5.8 mph - N/A   Clear
9:14 PM 60.8 °F - 37.4 °F 42% 29.76 in 10.0 mi Calm Calm - N/A   Clear
9:34 PM 60.8 °F - 37.4 °F 42% 29.77 in 10.0 mi SW 4.6 mph - N/A   Clear
9:53 PM 57.2 °F - 37.4 °F 48% 29.77 in 10.0 mi SW 5.8 mph - N/A   Clear
10:14 PM 55.4 °F - 39.2 °F 54% 29.77 in 7.0 mi Calm Calm - N/A   Clear
10:33 PM 55.4 °F - 37.4 °F 51% 29.77 in 7.0 mi SW 4.6 mph - N/A   Clear
10:54 PM 59.0 °F - 37.4 °F 45% 29.76 in 10.0 mi WSW 5.8 mph - N/A   Clear
11:54 PM 57.2 °F - 37.4 °F 48% 29.76 in 10.0 mi WSW 3.5 mph - N/A   Clear